Weather History for KCFE - May, 2013

Change the Weather History Date:

Sunday, May 12, 2013

  Actual Average (KSTC) Record (KSTC)
Temperature  
Mean Temperature 44 °F 55 °F  
Max Temperature 57 °F 68 °F 95 °F (1900)
Min Temperature 32 °F 43 °F 21 °F (1946)
Degree Days  
Heating Degree Days 20 10  
Month to date heating degree days 142  
Since 1 July heating degree days 8309  
Cooling Degree Days 0 1  
Month to date cooling degree days 4  
Year to date cooling degree days 6  
Moisture  
Dew Point 19 °F    
Average Humidity 39    
Maximum Humidity 67    
Minimum Humidity 18    
Precipitation  
Precipitation 0.00 in 0.09 in 1.31 in (1999)
Month to date precipitation 1.14  
Year to date precipitation 6.50  
Snow  
Snow 0.00 in 0.00 in T in (1953)
Month to date snowfall 0.0  
Since 1 July snowfall 45.7  
Snow Depth -    
Sea Level Pressure  
Sea Level Pressure 30.18 in    
Wind  
Wind Speed 5 mph (NW)    
Max Wind Speed 14 mph    
Max Gust Speed 29 mph    
Visibility 10 miles    
Events      
T = Trace of Precipitation, MM = Missing Value Source: NWS Daily Summary

Daily Weather History Graph

Daily Weather History Graph

Search for Another Location

Airport or City:

Trip Planner

Search our weather history database for the weather conditions in past years. The results will help you decide how hot, cold, wet, or windy it might be!

Date:

Astronomy

May. 12, 2013 Rise Set
Actual Time 5:49 AM CDT 8:35 PM CDT
Civil Twilight 5:15 AM CDT 9:09 PM CDT
Nautical Twilight 4:32 AM CDT 9:52 PM CDT
Astronomical Twilight 3:42 AM CDT 10:42 PM CDT
Moon 7:43 AM CDT (5/12) 11:03 PM CDT (5/12)
Length of Visible Light 15h 54m
Length of Day
14h 46m
Waxing Crescent, 7% of the Moon is Illuminated
May 12
Waxing Crescent
May 17
First Quarter
May 24
Full
May 31
Last Quarter
Jun 8
New

Hourly Weather History & Observations

Time (CDT) Temp. Windchill Dew Point Humidity Pressure Visibility Wind Dir Wind Speed Gust Speed Precip Events Conditions
12:14 AM 38.3 °F 34.8 °F 22.5 °F 53% 30.20 in 10.0 mi NW 4.6 mph - N/A   Clear
12:35 AM 38.1 °F 35.7 °F 22.5 °F 53% 30.21 in 10.0 mi NW 3.5 mph - N/A   Clear
12:54 AM 37.4 °F 33.8 °F 23.2 °F 57% 30.21 in 10.0 mi NW 4.6 mph - N/A   Clear
1:14 AM 36.5 °F 33.9 °F 22.8 °F 58% 30.21 in 10.0 mi NW 3.5 mph - N/A   Clear
1:35 AM 36.5 °F 33.9 °F 22.8 °F 58% 30.21 in 10.0 mi NW 3.5 mph - N/A   Clear
1:54 AM 36.0 °F 33.3 °F 23.0 °F 59% 30.22 in 10.0 mi NW 3.5 mph - N/A   Clear
2:14 AM 35.6 °F 32.8 °F 22.8 °F 60% 30.22 in 10.0 mi NW 3.5 mph - N/A   Clear
2:34 AM 35.1 °F 32.2 °F 22.6 °F 61% 30.22 in 10.0 mi WNW 3.5 mph - N/A   Clear
2:54 AM 34.7 °F 31.8 °F 22.8 °F 62% 30.21 in 10.0 mi WNW 3.5 mph - N/A   Clear
3:14 AM 34.9 °F 32.0 °F 22.1 °F 60% 30.21 in 10.0 mi NW 3.5 mph - N/A   Clear
3:35 AM 34.7 °F 31.8 °F 22.1 °F 60% 30.21 in 10.0 mi NW 3.5 mph - N/A   Clear
3:54 AM 33.8 °F 30.8 °F 22.6 °F 64% 30.21 in 10.0 mi NW 3.5 mph - N/A   Clear
4:35 AM 32.9 °F - 22.3 °F 65% 30.21 in 10.0 mi Calm Calm - N/A   Clear
4:54 AM 32.5 °F - 22.1 °F 65% 30.21 in 10.0 mi Calm Calm - N/A   Clear
5:14 AM 32.9 °F - 22.1 °F 65% 30.21 in 10.0 mi Calm Calm - N/A   Clear
5:35 AM 32.4 °F - 22.5 °F 67% 30.21 in 10.0 mi Calm Calm - N/A   Clear
5:54 AM 32.0 °F 28.7 °F 22.1 °F 67% 30.22 in 10.0 mi NW 3.5 mph - N/A   Clear
6:14 AM 32.0 °F 28.7 °F 22.1 °F 67% 30.22 in 10.0 mi NW 3.5 mph - N/A   Clear
6:35 AM 33.1 °F 30.0 °F 22.5 °F 65% 30.22 in 10.0 mi NW 3.5 mph - N/A   Clear
6:54 AM 34.7 °F 31.8 °F 22.6 °F 61% 30.23 in 10.0 mi NNW 3.5 mph - N/A   Clear
7:14 AM 35.8 °F 33.0 °F 22.8 °F 59% 30.23 in 10.0 mi NNW 3.5 mph - N/A   Clear
7:34 AM 37.6 °F 32.3 °F 23.4 °F 57% 30.24 in 10.0 mi NW 6.9 mph - N/A   Clear
7:54 AM 38.3 °F 34.8 °F 23.4 °F 55% 30.24 in 10.0 mi NW 4.6 mph - N/A   Clear
8:14 AM 40.1 °F 35.3 °F 23.0 °F 51% 30.24 in 10.0 mi NW 6.9 mph - N/A   Clear
8:34 AM 41.4 °F 36.8 °F 21.4 °F 45% 30.24 in 10.0 mi North 6.9 mph - N/A   Clear
8:55 AM 42.3 °F 37.9 °F 21.6 °F 44% 30.24 in 10.0 mi NNW 6.9 mph - N/A   Clear
9:14 AM 42.8 °F 38.0 °F 21.4 °F 43% 30.24 in 10.0 mi NNW 8.1 mph - N/A   Clear
9:34 AM 43.7 °F 38.6 °F 21.2 °F 41% 30.24 in 10.0 mi NW 9.2 mph - N/A   Clear
9:55 AM 44.6 °F 39.2 °F 20.5 °F 38% 30.23 in 10.0 mi NNW 10.4 mph 16.1 mph N/A   Clear
10:14 AM 45.5 °F 41.8 °F 20.5 °F 37% 30.23 in 10.0 mi NNW 6.9 mph - N/A   Clear
10:34 AM 46.4 °F 40.4 °F 18.3 °F 33% 30.23 in 10.0 mi NNW 13.8 mph - N/A   Clear
10:55 AM 47.3 °F - 18.7 °F 32% 30.23 in 10.0 mi North 9.2 mph 16.1 mph N/A   Clear
11:14 AM 47.7 °F - 18.5 °F 31% 30.22 in 10.0 mi NW 10.4 mph 16.1 mph N/A   Clear
11:34 AM 48.0 °F - 15.8 °F 28% 30.22 in 10.0 mi NNW 8.1 mph 16.1 mph N/A   Clear
11:55 AM 49.1 °F - 16.7 °F 28% 30.21 in 10.0 mi NW 9.2 mph 17.3 mph N/A   Clear
12:14 PM 50.2 °F - 16.5 °F 26% 30.20 in 10.0 mi NNW 5.8 mph 17.3 mph N/A   Clear
12:34 PM 50.4 °F - 16.7 °F 26% 30.19 in 10.0 mi NW 12.7 mph 18.4 mph N/A   Clear
12:55 PM 51.4 °F - 15.8 °F 24% 30.19 in 10.0 mi West 9.2 mph - N/A   Clear
1:14 PM 51.8 °F - 15.4 °F 24% 30.19 in 10.0 mi NNW 10.4 mph - N/A   Clear
1:34 PM 52.7 °F - 15.6 °F 23% 30.18 in 10.0 mi NNW 10.4 mph - N/A   Clear
1:55 PM 53.4 °F - 14.0 °F 21% 30.17 in 10.0 mi WNW 10.4 mph 19.6 mph N/A   Clear
2:14 PM 53.6 °F - 15.3 °F 22% 30.16 in 10.0 mi NW 9.2 mph 17.3 mph N/A   Clear
2:34 PM 54.5 °F - 17.4 °F 23% 30.16 in 10.0 mi WNW 5.8 mph 28.8 mph N/A   Clear
2:55 PM 54.7 °F - 14.5 °F 20% 30.15 in 10.0 mi WNW 9.2 mph 17.3 mph N/A   Clear
3:14 PM 55.4 °F - 14.2 °F 20% 30.15 in 10.0 mi NW 12.7 mph 17.3 mph N/A   Clear
3:34 PM 54.7 °F - 14.7 °F 21% 30.15 in 10.0 mi West 10.4 mph - N/A   Clear
3:54 PM 55.9 °F - 14.0 °F 19% 30.14 in 10.0 mi WNW 11.5 mph 24.2 mph N/A   Clear
4:14 PM 56.5 °F - 13.6 °F 18% 30.13 in 10.0 mi West 13.8 mph 18.4 mph N/A   Clear
4:34 PM 56.5 °F - 12.7 °F 18% 30.13 in 10.0 mi WNW 9.2 mph 21.9 mph N/A   Clear
4:54 PM 57.0 °F - 14.0 °F 18% 30.13 in 10.0 mi West 11.5 mph 17.3 mph N/A   Clear
5:14 PM 57.2 °F - 14.0 °F 18% 30.13 in 10.0 mi NW 9.2 mph 18.4 mph N/A   Clear
5:34 PM 57.6 °F - 14.0 °F 18% 30.12 in 10.0 mi NW 9.2 mph 18.4 mph N/A   Clear
5:54 PM 57.0 °F - 13.5 °F 18% 30.12 in 10.0 mi WNW 12.7 mph - N/A   Clear
6:14 PM 57.4 °F - 14.5 °F 19% 30.11 in 10.0 mi NW 8.1 mph 18.4 mph N/A   Clear
6:34 PM 57.0 °F - 14.7 °F 19% 30.11 in 10.0 mi NW 11.5 mph - N/A   Clear
6:54 PM 56.3 °F - 16.5 °F 21% 30.10 in 10.0 mi NW 9.2 mph - N/A   Clear
7:15 PM 56.3 °F - 16.5 °F 21% 30.09 in 10.0 mi NW 8.1 mph - N/A   Clear
7:34 PM 55.6 °F - 17.8 °F 23% 30.10 in 10.0 mi WNW 8.1 mph - N/A   Clear
7:54 PM 55.0 °F - 17.8 °F 23% 30.10 in 10.0 mi WNW 3.5 mph - N/A   Clear
8:15 PM 54.1 °F - 17.4 °F 24% 30.10 in 10.0 mi WNW 6.9 mph - N/A   Clear
8:34 PM 53.2 °F - 18.7 °F 26% 30.11 in 10.0 mi WNW 4.6 mph - N/A   Clear
8:54 PM 52.3 °F - 19.2 °F 27% 30.11 in 10.0 mi West 4.6 mph - N/A   Clear
9:15 PM 50.7 °F - 19.9 °F 30% 30.11 in 10.0 mi West 4.6 mph - N/A   Clear
9:34 PM 50.4 °F - 20.3 °F 31% 30.11 in 10.0 mi WNW 3.5 mph - N/A   Clear
9:54 PM 48.4 °F - 22.1 °F 36% 30.12 in 10.0 mi Calm Calm - N/A   Clear
10:15 PM 49.1 °F - 20.3 °F 32% 30.12 in 10.0 mi NW 3.5 mph - N/A   Clear
10:34 PM 49.3 °F - 19.9 °F 31% 30.11 in 10.0 mi Calm Calm - N/A   Clear
10:54 PM 45.9 °F - 21.7 °F 38% 30.11 in 10.0 mi Calm Calm - N/A   Clear
11:15 PM 43.9 °F - 23.4 °F 44% 30.11 in 10.0 mi Calm Calm - N/A   Clear
11:34 PM 41.9 °F 39.0 °F 23.0 °F 47% 30.11 in 10.0 mi ENE 4.6 mph - N/A   Clear
11:54 PM 42.3 °F - 23.9 °F 48% 30.12 in 10.0 mi Calm Calm - N/A   Clear